Monticello, AR

4:06 PM CDT on May 23, 2018 (GMT -0500)
Monticello Municipal-Ellis

Weather History for KLLQ - October, 2013

Change the Weather History Date:

Thursday, October 31, 2013

  Actual Average Record
Temperature  
Mean Temperature 67 °F -  
Max Temperature 73 °F 72 °F 87 °F (2016)
Min Temperature 57 °F 49 °F 24 °F (1993)
Cooling Degree Days 2    
Growing Degree Days 17 (Base 50)    
Moisture  
Dew Point 66 °F    
Average Humidity 87    
Maximum Humidity 94    
Minimum Humidity 63    
Precipitation  
Precipitation 1.86 in - - ()
Sea Level Pressure  
Sea Level Pressure 29.75 in    
Wind  
Wind Speed 10 mph (South)    
Max Wind Speed 15 mph    
Max Gust Speed 23 mph    
Visibility 8 miles    
Events Rain    
Averages and records for this station are not official NWS values.
T = Trace of Precipitation, MM = Missing Value Source: NWS Daily Summary

Daily Weather History Graph

Daily Weather History Graph

Search for Another Location

Airport or City:

Astronomy

Oct. 31, 2013 Rise Set
Actual Time 7:25 AM CDT 6:15 PM CDT
Civil Twilight 6:59 AM CDT 6:41 PM CDT
Nautical Twilight 6:30 AM CDT 7:10 PM CDT
Astronomical Twilight 6:01 AM CDT 7:39 PM CDT
Moon 4:23 AM CDT (10/31) 4:26 PM CDT (10/31)
Length of Visible Light 11h 41m
Length of Day
10h 50m
Waning Crescent, 10% of the Moon is Illuminated
Oct 31
Waning Crescent
Nov 3
New
Nov 9
First Quarter
Nov 17
Full
Nov 25
Last Quarter

Hourly Weather History & Observations

Time (CDT) Temp. Dew Point Humidity Pressure Visibility Wind Dir Wind Speed Gust Speed Precip Events Conditions
12:53 AM 66.0 °F 63.0 °F 90% 29.91 in 10.0 mi SSE 10.4 mph 21.9 mph 0.05 in Rain Light Rain
1:53 AM 66.9 °F 64.9 °F 93% 29.88 in 5.0 mi SSE 9.2 mph 18.4 mph 0.04 in Rain Light Rain
2:06 AM 68.0 °F 64.4 °F 88% 29.89 in 10.0 mi South 10.4 mph - 0.00 in   Overcast
2:30 AM 68.0 °F 66.2 °F 94% 29.87 in 10.0 mi SSE 9.2 mph 16.1 mph 0.00 in   Overcast
2:53 AM 69.1 °F 66.0 °F 90% 29.84 in 10.0 mi SSE 9.2 mph 17.3 mph 0.00 in Rain Light Rain
3:07 AM 69.8 °F 66.2 °F 88% 29.84 in 10.0 mi South 6.9 mph - 0.00 in Rain Light Rain
3:24 AM 69.8 °F 66.2 °F 88% 29.83 in 6.0 mi South 12.7 mph 21.9 mph 0.03 in Rain Rain
3:33 AM 69.8 °F 66.2 °F 88% 29.82 in 8.0 mi SSE 9.2 mph 18.4 mph 0.04 in Rain Light Rain
3:42 AM 69.8 °F 66.2 °F 88% 29.82 in 9.0 mi South 9.2 mph 19.6 mph 0.05 in Rain Light Rain
3:53 AM 70.0 °F 66.9 °F 90% 29.81 in 9.0 mi South 13.8 mph 20.7 mph 0.05 in Rain Light Rain
4:53 AM 70.0 °F 66.9 °F 90% 29.77 in 10.0 mi South 13.8 mph 23.0 mph 0.03 in Rain Light Rain
5:21 AM 69.8 °F 66.2 °F 88% 29.78 in 5.0 mi SSE 12.7 mph 21.9 mph 0.03 in Rain Rain
5:46 AM 69.8 °F 66.2 °F 88% 29.78 in 3.0 mi South 10.4 mph 18.4 mph 0.16 in Rain Heavy Rain
5:53 AM 70.0 °F 66.9 °F 90% 29.78 in 3.0 mi South 9.2 mph - 0.21 in Rain Heavy Rain
6:01 AM 69.8 °F 66.2 °F 88% 29.79 in 3.0 mi South 9.2 mph - 0.05 in Rain Heavy Rain
6:41 AM 69.8 °F 66.2 °F 88% 29.78 in 2.0 mi SSW 10.4 mph 23.0 mph 0.36 in Rain Heavy Rain
6:48 AM 69.8 °F 66.2 °F 88% 29.78 in 4.0 mi SSW 9.2 mph 17.3 mph 0.39 in Rain Rain
6:53 AM 69.1 °F 66.9 °F 93% 29.78 in 3.0 mi South 9.2 mph - 0.43 in Rain Heavy Rain
7:05 AM 69.8 °F 66.2 °F 88% 29.78 in 2.5 mi South 13.8 mph 21.9 mph 0.12 in Rain Heavy Rain
7:17 AM 69.8 °F 66.2 °F 88% 29.78 in 3.0 mi South 15.0 mph 23.0 mph 0.22 in Rain Heavy Rain
7:27 AM 69.8 °F 66.2 °F 88% 29.77 in 4.0 mi South 11.5 mph 18.4 mph 0.25 in Rain Rain
7:36 AM 69.8 °F 66.2 °F 88% 29.76 in 2.5 mi South 12.7 mph 20.7 mph 0.33 in Rain Heavy Rain
7:53 AM 70.0 °F 66.9 °F 90% 29.75 in 3.0 mi South 10.4 mph 20.7 mph 0.46 in Rain Heavy Rain
8:16 AM 69.8 °F 68.0 °F 94% 29.76 in 2.0 mi SSE 15.0 mph 21.9 mph 0.20 in Rain Heavy Rain
8:24 AM 69.8 °F 68.0 °F 94% 29.75 in 3.0 mi SSE 11.5 mph 21.9 mph 0.27 in Rain Heavy Rain
8:53 AM 70.0 °F 66.9 °F 90% 29.75 in 4.0 mi SSE 12.7 mph 20.7 mph 0.40 in Rain Heavy Rain
9:17 AM 69.8 °F 66.2 °F 88% 29.76 in 4.0 mi South 10.4 mph 16.1 mph 0.08 in Rain Rain
9:53 AM 70.0 °F 68.0 °F 93% 29.74 in 10.0 mi SSE 13.8 mph 19.6 mph 0.14 in Rain Light Rain
10:53 AM 70.0 °F 66.9 °F 90% 29.73 in 10.0 mi SSE 10.4 mph - 0.03 in Rain Light Rain
11:53 AM 71.1 °F 68.0 °F 90% 29.73 in 10.0 mi South 9.2 mph - 0.01 in Rain Light Rain
12:31 PM 71.6 °F 69.8 °F 94% 29.70 in 10.0 mi South 6.9 mph - 0.00 in Rain Light Rain
12:51 PM 71.6 °F 69.8 °F 94% 29.68 in 10.0 mi South 10.4 mph 17.3 mph 0.01 in Rain Light Rain
12:53 PM 71.1 °F 69.1 °F 93% 29.67 in 10.0 mi South 10.4 mph 17.3 mph 0.01 in Rain Light Rain
1:17 PM 71.6 °F 69.8 °F 94% 29.67 in 10.0 mi South 10.4 mph - 0.00 in Rain Light Rain
1:44 PM 73.4 °F 69.8 °F 88% 29.67 in 10.0 mi South 11.5 mph 17.3 mph 0.00 in   Overcast
1:53 PM 73.0 °F 70.0 °F 90% 29.66 in 10.0 mi SSW 12.7 mph 18.4 mph 0.00 in   Overcast
2:27 PM 73.4 °F 69.8 °F 88% 29.66 in 10.0 mi SSW 11.5 mph - N/A   Overcast
2:53 PM 73.0 °F 69.1 °F 87% 29.64 in 10.0 mi SSW 11.5 mph 21.9 mph N/A   Overcast
3:20 PM 73.4 °F 69.8 °F 88% 29.65 in 10.0 mi SSW 10.4 mph - N/A   Overcast
3:53 PM 73.0 °F 69.1 °F 87% 29.63 in 10.0 mi SSW 13.8 mph 19.6 mph N/A   Mostly Cloudy
4:12 PM 73.4 °F 68.0 °F 83% 29.64 in 10.0 mi SSW 12.7 mph 19.6 mph N/A   Scattered Clouds
4:53 PM 73.0 °F 68.0 °F 84% 29.64 in 10.0 mi SSW 10.4 mph - N/A   Scattered Clouds
5:53 PM 72.0 °F 66.0 °F 81% 29.66 in 10.0 mi SSW 11.5 mph 19.6 mph N/A   Clear
6:53 PM 70.0 °F 66.0 °F 87% 29.69 in 10.0 mi SSW 10.4 mph - N/A   Clear
7:53 PM 70.0 °F 64.0 °F 81% 29.73 in 10.0 mi WSW 8.1 mph 18.4 mph N/A   Clear
8:53 PM 68.0 °F 55.0 °F 63% 29.76 in 10.0 mi WSW 8.1 mph - N/A   Clear
9:53 PM 63.0 °F 52.0 °F 67% 29.78 in 10.0 mi West 4.6 mph - N/A   Clear
10:53 PM 61.0 °F 50.0 °F 67% 29.80 in 10.0 mi West 5.8 mph - N/A   Clear
11:53 PM 57.9 °F 50.0 °F 75% 29.82 in 10.0 mi West 3.5 mph - N/A   Clear